Location: Unspecified
(0.0000°N, 0.0000°E)
Time: 13:32:41
(UTC+00:00)

JUGNU - Pass Details

Date: 22 February 2020
Orbit: 836 x 864 km, 20.0° (Epoch: 01 April)

Event Time Altitude Azimuth Distance (km) Brightness Sun altitude
Exits shadow 04:57:17 - 220° (SW) 2,754 ? -18.8°
Reaches altitude 10° 04:58:15 10° 214° (SW) 2,478 ? -18.5°
Maximum altitude 05:02:53 23° 163° (SSE) 1,734 ? -17.4°
Drops below altitude 10° 05:07:32 10° 112° (ESE) 2,487 ? -16.2°
Sets 05:10:38 0° 98° (E) 3,425 ? -15.5°
